Satellite-Ground Cal/Val Site Overpasses Predictions

Prediction of Satellite NPP Overpassing Cal/Val Site: Antarctic Dome C

Ground Cal/Val Site Location: Latitude: -75.10, Longitude: 123.35; Satellite-Ground Site NADIR distance within 100 km.

Table of predicted overpasses for the next 14.0 days since TLE Epoch: 9/7/2018
Interval Starting Time Ending Time Minimum Distance Time Minimum Distance (km)
1 09/07/2018 15:07:59 09/07/2018 15:08:06 09/07/2018 15:08:02 96.39
2 09/08/2018 14:48:58 09/08/2018 14:49:27 09/08/2018 14:49:12 15.05
3 09/10/2018 07:31:49 09/10/2018 07:32:18 09/10/2018 07:32:04 2.75
4 09/13/2018 14:55:18 09/13/2018 14:55:46 09/13/2018 14:55:32 21.72
5 09/14/2018 14:36:36 09/14/2018 14:36:51 09/14/2018 14:36:44 85.18
6 09/15/2018 07:38:08 09/15/2018 07:38:36 09/15/2018 07:38:22 33.76
7 09/16/2018 07:19:24 09/16/2018 07:19:43 09/16/2018 07:19:33 76.30
8 09/18/2018 15:01:40 09/18/2018 15:02:03 09/18/2018 15:01:51 58.92
9 09/19/2018 14:42:49 09/19/2018 14:43:14 09/19/2018 14:43:02 50.20
10 09/20/2018 07:44:31 09/20/2018 07:44:52 09/20/2018 07:44:41 69.10


NCC Satellite Cal/Val Overpasses Prediction Service
